Theta_e
334 333 333 332 331 331 330 330 330 329 329 329 329 331 330 329 330 329 328 328 327 327 327 328 327 326 327 328 329 328 327 326 325 325 326 328 330 327 326 327 326 324 325
333 332 333 331 331 330 330 330 329 329 330 328 329 331 330 330 329 330 330 328 328 327 327 326 326 327 329 330 329 328 326 326 325 325 324 324 324 324 323 322 321 321 319
332 332 331 331 330 330 330 329 328 326 327 328 328 330 330 330 331 330 330 330 326 323 327 326 326 329 330 327 325 325 325 324 324 324 324 323 322 321 321 320 319 320 320
334 331 330 331 331 331 329 327 327 327 327 327 329 331 330 331 331 331 332 330 328 325 326 328 327 329 329 326 324 324 324 324 323 324 323 323 322 320 319 318 318 318 318
331 331 332 332 331 330 329 328 326 326 327 330 331 331 331 330 329 331 331 329 327 327 329 329 328 328 328 327 325 323 323 323 323 323 323 322 322 321 320 319 318 317 317
332 332 332 332 330 329 328 328 328 328 326 330 329 330 329 325 329 331 331 328 327 328 329 328 329 328 327 326 324 324 323 323 323 323 322 322 322 321 320 319 318 317 316
332 333 332 330 329 327 327 327 327 327 328 330 330 328 325 324 330 331 331 330 329 328 328 328 326 327 326 325 324 324 323 323 323 323 323 322 321 320 321 320 320 319 317
333 335 331 328 327 327 327 326 328 328 329 330 329 327 326 326 330 331 330 330 330 330 326 327 325 325 324 324 324 323 323 323 323 323 323 322 321 321 321 320 319 319 318
332 334 331 329 328 328 327 327 328 328 329 330 330 328 325 327 330 331 330 330 329 328 326 326 325 324 323 324 323 323 322 323 323 322 322 322 321 321 321 320 320 318 317
332 332 330 329 329 330 328 329 329 329 329 329 330 329 325 329 331 331 329 331 329 328 326 325 325 324 324 324 323 323 322 322 322 322 321 321 321 321 320 320 318 318 317
331 330 330 329 330 329 329 330 330 331 330 330 330 328 326 329 330 331 331 330 328 328 327 325 325 324 324 324 324 323 323 323 322 321 321 321 321 319 318 318 317 315 318
330 330 329 330 329 329 330 330 331 331 331 331 329 327 327 329 331 331 331 330 328 327 327 326 325 325 324 324 324 324 323 323 322 321 321 320 320 316 317 323 319 316 317
329 329 330 331 330 330 330 332 331 331 330 329 329 327 327 329 330 331 331 329 328 328 327 326 326 325 325 324 324 324 324 323 322 320 320 319 319 317 317 319 323 324 322
330 330 331 331 332 332 332 331 331 330 329 329 329 327 327 329 330 330 330 329 328 327 327 326 326 325 325 325 325 324 324 323 322 322 320 319 318 318 320 322 323 324 326
331 331 332 332 331 331 331 331 330 330 330 329 329 328 327 328 329 329 330 329 327 327 327 327 326 325 325 324 324 324 324 324 323 322 323 322 322 321 321 321 322 325 325
330 331 331 331 329 329 329 330 330 331 331 331 330 328 328 328 329 329 329 328 327 328 327 326 325 325 324 323 323 324 324 324 324 323 322 323 324 325 325 325 325 326 326
330 331 332 331 330 329 327 325 325 324 325 332 332 330 328 327 329 329 329 327 327 326 326 325 325 325 324 324 324 324 325 324 323 323 323 323 324 324 326 327 327 326 325
331 330 332 332 331 329 328 326 325 324 328 331 332 330 330 328 329 329 328 326 322 323 326 326 326 327 327 324 324 324 325 325 325 324 326 326 326 326 326 325 325 325 324
331 330 330 332 332 331 330 325 322 322 325 327 327 331 330 330 327 329 329 327 323 323 324 325 324 324 327 328 327 325 324 324 325 327 327 327 327 327 327 326 325 324 324
331 331 331 331 332 331 330 328 324 321 321 323 328 331 331 330 327 329 329 328 326 325 324 325 327 328 326 325 326 326 326 326 326 326 325 325 326 326 326 326 325 324 326
328 331 332 329 331 330 329 330 329 326 323 321 323 326 330 330 327 327 328 328 328 329 328 327 325 325 327 328 328 325 323 322 322 323 323 323 323 324 326 326 325 325 325
326 327 328 328 327 327 328 328 329 329 327 325 322 322 326 329 326 325 326 327 328 328 329 329 328 327 327 328 328 327 327 327 326 326 325 325 324 323 324 325 324 323 322
327 326 325 326 326 325 325 326 325 327 328 328 326 323 322 326 325 325 325 325 326 326 327 327 328 327 327 328 329 329 327 324 325 327 327 326 326 325 324 323 322 322 321
328 327 326 325 325 325 325 324 324 323 324 328 328 326 325 323 324 324 324 324 324 324 324 324 325 326 326 326 325 324 323 322 323 321 320 323 324 325 324 324 323 322 322
320 326 330 327 325 325 324 324 324 323 322 322 326 327 326 325 323 323 323 323 323 322 322 322 322 321 321 321 319 318 320 321 321 321 320 320 320 321 321 320 321 321 321
317 319 322 326 330 327 324 324 323 323 323 322 322 322 325 326 325 325 324 323 322 322 321 321 320 320 319 318 317 317 317 319 322 323 323 323 322 321 321 321 320 320 320
Wind_Speed
23 21 20 17 13 12 10 11 12 12 10 9 5 4 3 2 3 4 6 7 8 6 6 7 9 8 9 10 12 21 21 21 9 7 12 18 24 26 30 40 43 42 47
22 21 20 19 17 15 12 12 11 11 11 7 6 6 5 3 2 3 8 7 7 7 7 8 6 5 8 10 15 18 25 21 24 15 16 18 26 30 34 39 39 43 39
21 18 19 17 17 13 13 13 12 9 10 7 5 6 5 2 1 5 5 5 10 5 6 7 8 9 10 15 19 22 25 26 24 24 17 25 28 36 33 37 38 40 38
22 20 18 19 16 14 13 10 11 10 7 4 6 8 5 3 3 4 4 5 13 9 5 6 10 13 16 22 23 24 28 28 28 26 24 27 28 28 38 39 29 34 33
20 21 20 17 14 15 14 11 10 9 6 6 10 10 6 3 5 5 2 8 13 9 7 8 14 13 13 21 30 27 31 29 26 27 24 24 28 30 31 30 29 29 30
20 19 21 17 16 16 12 13 10 9 7 10 12 11 5 4 4 4 5 10 10 12 12 18 21 19 20 22 28 34 33 35 29 24 26 26 24 26 32 32 29 23 8
21 20 21 20 17 14 14 11 9 7 9 11 13 9 5 4 4 5 7 9 10 12 16 18 20 20 21 23 28 30 33 29 30 36 32 28 31 33 33 29 27 19 18
21 20 24 20 18 15 13 12 11 10 9 11 11 8 4 4 4 6 9 11 13 14 17 17 20 20 22 27 28 30 31 29 27 27 32 31 34 35 33 32 27 23 23
20 22 22 20 19 16 15 15 12 11 11 12 11 8 5 6 5 9 12 13 14 16 18 18 23 27 28 30 32 29 27 24 27 28 32 35 35 36 33 32 26 27 16
21 25 25 23 20 17 14 13 10 10 10 12 11 7 6 8 8 10 13 15 17 18 17 19 22 27 28 29 31 31 26 24 25 26 25 28 31 29 33 32 32 25 18
26 29 26 23 20 17 14 12 9 8 11 13 13 8 8 8 7 11 14 16 20 20 19 21 24 25 26 26 29 33 30 29 25 28 30 29 28 32 27 21 25 30 26
26 31 28 25 23 20 17 13 11 11 13 15 14 10 8 7 10 12 14 14 18 22 22 23 26 24 24 26 25 28 28 25 26 28 30 27 29 31 25 16 19 20 21
29 31 29 25 23 20 17 15 16 16 17 15 14 13 11 9 13 13 15 16 15 20 21 22 24 23 22 22 22 26 26 25 29 28 29 29 29 29 22 18 12 13 20
30 30 30 27 23 19 17 17 18 18 17 17 15 13 13 13 14 15 17 17 15 20 22 22 22 21 20 22 22 23 27 27 29 30 30 29 26 23 21 18 16 14 15
31 31 30 28 25 22 18 20 19 18 20 21 19 18 19 16 15 15 20 20 23 25 24 22 22 22 20 24 25 25 27 29 28 26 24 22 21 21 22 20 19 17 18
24 26 27 29 25 23 20 16 15 16 19 19 16 18 18 17 18 18 19 18 24 26 26 26 24 21 22 21 19 26 24 26 29 26 21 20 22 21 23 23 24 24 24
26 25 27 27 27 25 20 17 13 11 14 21 18 17 15 18 21 20 20 21 24 25 23 25 24 23 22 24 26 28 28 30 29 26 26 26 25 25 26 28 28 28 27
31 35 33 28 26 27 26 20 19 16 13 19 19 21 17 18 25 23 22 24 26 24 22 25 24 25 25 27 28 31 30 30 30 29 27 28 29 30 29 28 27 31 30
34 32 30 31 30 30 30 26 25 23 21 20 18 25 23 20 26 26 25 29 29 28 26 26 25 26 28 29 30 31 31 32 32 33 32 30 32 32 30 31 29 31 32
34 36 35 34 31 31 29 27 25 26 24 23 23 28 27 26 29 31 31 30 31 31 31 31 29 27 27 29 32 33 33 33 33 34 34 32 32 36 34 35 33 31 38
29 38 39 32 33 32 31 27 28 25 26 28 30 30 34 38 36 38 39 37 35 34 35 35 34 33 31 30 32 34 35 36 37 36 35 35 34 33 35 38 40 39 34
26 33 36 32 31 30 30 31 30 28 27 28 31 33 35 38 35 37 41 42 42 40 39 38 38 38 37 36 33 32 38 40 40 41 40 40 38 36 36 38 40 37 38
19 22 27 28 27 30 33 32 29 30 28 30 31 31 37 42 35 38 41 44 45 44 43 42 41 42 43 43 42 42 40 36 39 41 41 42 42 42 42 41 40 36 36
17 5 21 23 23 28 30 31 34 32 32 31 31 31 38 44 40 41 44 45 45 46 46 46 47 47 46 46 46 46 46 45 43 41 35 41 45 44 43 42 40 41 41
25 24 18 5 23 26 27 29 32 32 33 33 32 33 39 42 43 41 43 44 44 44 46 48 49 49 49 49 48 46 44 43 43 41 38 41 41 40 43 44 42 40 39
23 21 21 19 23 4 17 21 27 31 34 33 35 38 41 43 45 45 45 44 45 46 46 46 47 47 46 47 48 50 51 49 46 42 38 39 41 41 42 42 42 42 41
Wind_Direction
139 137 138 136 139 144 148 159 165 165 179 186 182 209 221 234 219 218 231 236 208 209 208 180 170 176 197 201 198 186 168 153 131 111 130 154 153 145 147 150 154 152 156
149 152 158 155 149 153 160 163 166 174 191 201 225 235 231 230 245 254 241 212 150 163 179 181 179 189 186 183 182 168 161 154 140 125 126 117 119 137 132 131 132 135 136
164 161 153 157 155 162 163 164 171 184 207 229 245 186 209 213 279 295 284 214 180 183 170 197 188 175 158 151 142 133 138 134 132 128 123 123 119 124 114 119 127 134 141
174 162 163 163 165 166 166 166 179 192 219 245 182 161 144 93 33 349 291 189 168 171 179 184 174 163 154 136 134 136 131 128 128 128 126 127 121 122 121 119 121 130 134
174 167 164 162 165 165 170 167 164 193 203 164 162 152 124 83 25 7 61 129 145 141 143 153 170 164 155 156 143 137 136 132 130 131 129 128 127 128 128 129 125 128 136
174 164 158 157 159 169 173 171 185 204 200 169 160 146 122 89 48 44 95 130 139 138 124 119 132 137 145 153 154 152 147 141 137 137 136 134 133 130 133 131 130 134 126
163 163 156 158 165 171 168 174 192 183 175 163 161 146 128 97 64 92 112 130 143 145 134 135 138 141 149 156 151 147 148 143 146 143 142 141 137 143 137 140 141 141 142
157 160 163 161 167 167 168 178 174 178 177 166 160 143 135 120 86 125 127 123 137 138 144 145 141 140 146 139 134 130 140 146 145 144 144 144 148 149 147 146 145 139 141
161 167 169 163 170 172 181 180 179 181 174 172 168 155 150 142 122 140 138 129 126 133 141 143 138 136 136 132 125 120 122 123 139 147 152 156 154 156 156 148 146 139 145
163 170 166 169 176 177 173 171 183 196 186 177 170 169 160 151 139 149 151 143 128 129 139 141 142 141 143 144 132 129 124 136 141 147 147 153 159 163 163 168 165 150 149
170 169 171 174 175 173 169 178 181 185 191 173 161 163 160 157 148 159 165 154 145 141 144 145 146 148 151 151 144 149 146 154 157 153 155 156 160 163 164 170 176 172 164
171 169 173 177 178 174 169 167 175 168 158 158 154 153 158 147 148 155 169 163 156 146 151 153 153 153 157 156 156 157 152 156 154 160 158 162 169 171 170 165 188 196 188
168 171 175 172 164 166 166 168 166 168 163 164 164 160 160 147 145 155 164 163 157 153 151 154 156 157 160 163 159 162 162 160 161 157 164 171 173 176 182 192 191 198 218
166 170 173 171 167 169 175 176 172 174 173 174 176 171 164 160 157 159 163 160 157 151 150 150 157 156 162 169 167 166 169 171 166 168 174 179 185 192 200 204 211 221 218
164 166 167 171 171 169 174 184 188 194 194 185 190 181 173 172 173 168 164 165 160 153 153 154 158 163 161 164 170 172 180 182 181 178 179 182 190 202 213 215 222 226 224
161 163 167 172 174 173 177 187 204 211 211 214 206 194 189 180 169 169 172 170 165 160 158 160 164 169 172 174 173 179 185 188 195 196 198 199 206 210 215 217 223 226 226
167 169 172 172 177 179 183 186 193 225 233 211 215 206 200 184 175 172 175 171 170 170 170 174 177 178 177 182 185 188 193 199 201 205 211 216 220 225 225 225 225 230 237
177 177 178 178 181 186 189 194 188 182 177 198 207 208 204 193 184 177 177 174 175 186 189 186 189 191 192 192 194 199 202 205 211 215 222 228 229 228 228 226 224 227 233
184 181 180 184 186 190 195 194 187 185 184 188 200 202 202 200 192 188 188 189 189 195 199 200 201 202 204 206 208 209 212 213 217 221 230 235 237 228 227 228 228 231 234
190 190 190 190 191 195 194 193 194 196 195 190 189 193 194 196 194 198 199 202 204 207 207 210 211 211 210 210 212 216 221 227 231 234 243 239 235 232 226 228 226 224 231
189 192 194 191 198 201 204 200 202 197 199 203 202 199 200 196 199 202 206 210 216 219 219 219 219 220 222 225 226 227 230 233 235 238 237 231 230 229 233 236 235 233 234
196 196 195 195 200 204 207 215 208 205 204 203 211 212 207 198 200 204 209 215 220 225 228 226 226 226 227 228 230 236 240 238 239 240 240 241 242 239 234 234 235 236 238
206 206 201 201 205 209 214 214 214 211 209 210 211 210 210 207 210 211 215 219 223 226 230 231 233 234 234 237 238 241 243 244 247 247 245 246 246 246 246 244 242 237 237
46 214 214 214 210 209 216 220 221 223 218 213 210 208 218 215 214 221 224 226 227 230 232 234 236 237 239 241 243 245 249 251 252 251 251 252 249 247 246 245 244 245 245
34 31 33 282 225 224 226 224 228 229 225 220 215 211 220 222 220 222 228 230 232 234 236 238 240 242 244 245 246 246 248 249 250 251 252 252 252 252 251 246 245 243 242
24 20 21 21 28 332 240 238 235 235 232 229 226 224 223 225 227 227 228 230 233 236 240 243 246 246 246 247 249 248 248 248 250 251 253 256 255 253 251 249 246 243 242